Temp
-5 -5 -5 -5 -5 -5 -6 -6 -6 -6 -6 -7 -7 -7 -7 -7 -7 -7 -7 -7 -7 -7 -7 -8 -8 -8 -8 -8 -8 -8 -8 -8 -8 -8 -8 -8 -8 -8 -8 -8 -8 -8
-5 -5 -5 -5 -5 -6 -6 -6 -6 -6 -7 -7 -7 -7 -7 -7 -7 -7 -7 -7 -7 -7 -7 -8 -8 -8 -8 -8 -8 -8 -8 -8 -8 -8 -8 -8 -8 -8 -8 -8 -8 -8
-5 -5 -5 -6 -6 -6 -6 -6 -6 -7 -7 -7 -7 -7 -7 -7 -7 -7 -7 -8 -8 -8 -8 -8 -8 -8 -8 -8 -8 -8 -8 -8 -8 -8 -8 -8 -8 -8 -8 -8 -8 -8
-5 -5 -6 -6 -6 -6 -6 -6 -7 -7 -7 -7 -7 -7 -7 -7 -7 -7 -8 -8 -8 -8 -8 -8 -8 -8 -8 -8 -8 -8 -8 -8 -8 -8 -8 -8 -8 -8 -8 -8 -7 -7
-6 -6 -6 -6 -6 -6 -6 -6 -7 -7 -7 -7 -7 -7 -7 -7 -7 -8 -8 -8 -8 -8 -8 -8 -8 -8 -8 -8 -8 -8 -8 -8 -8 -8 -8 -8 -8 -8 -8 -8 -8 -7
-6 -6 -6 -6 -6 -6 -6 -7 -7 -7 -7 -7 -7 -7 -7 -7 -7 -8 -8 -8 -8 -8 -8 -8 -8 -8 -8 -8 -8 -8 -8 -8 -8 -8 -8 -8 -8 -8 -8 -8 -8 -8
-6 -6 -6 -6 -6 -6 -6 -7 -7 -7 -7 -7 -7 -7 -7 -7 -7 -8 -8 -8 -8 -8 -8 -8 -8 -8 -9 -9 -8 -8 -8 -8 -8 -8 -8 -8 -8 -8 -8 -8 -8 -8
-6 -6 -6 -6 -6 -6 -6 -7 -7 -7 -7 -7 -7 -7 -7 -7 -8 -8 -8 -8 -8 -8 -8 -8 -8 -8 -9 -8 -8 -8 -8 -8 -8 -8 -8 -8 -8 -8 -8 -8 -8 -8
-6 -6 -6 -6 -6 -6 -6 -7 -7 -7 -7 -7 -7 -7 -7 -7 -8 -8 -8 -8 -8 -8 -8 -8 -8 -9 -9 -8 -8 -8 -8 -8 -8 -8 -8 -9 -9 -8 -8 -8 -8 -8
-6 -6 -6 -6 -6 -6 -7 -7 -7 -7 -7 -7 -7 -7 -7 -8 -8 -8 -8 -8 -8 -8 -8 -8 -8 -9 -8 -8 -8 -8 -8 -8 -8 -8 -8 -9 -9 -9 -8 -8 -8 -8
-6 -7 -7 -7 -7 -7 -7 -7 -7 -7 -6 -7 -7 -7 -7 -8 -8 -8 -8 -8 -8 -8 -8 -8 -8 -8 -8 -8 -8 -8 -8 -8 -8 -8 -8 -9 -9 -9 -8 -8 -8 -8
-7 -7 -7 -7 -7 -7 -7 -7 -7 -7 -7 -7 -7 -7 -8 -8 -8 -8 -8 -8 -8 -8 -8 -8 -8 -8 -8 -8 -8 -8 -8 -8 -8 -9 -9 -9 -9 -9 -9 -8 -8 -8
-7 -7 -8 -8 -7 -7 -7 -7 -7 -7 -7 -7 -7 -7 -8 -8 -8 -8 -8 -8 -8 -8 -8 -8 -8 -8 -8 -9 -9 -8 -8 -8 -8 -9 -9 -9 -9 -9 -9 -9 -8 -8
-7 -8 -8 -8 -8 -8 -7 -7 -7 -7 -7 -7 -7 -8 -8 -8 -8 -8 -8 -8 -8 -8 -9 -9 -8 -9 -9 -9 -9 -9 -9 -8 -9 -9 -9 -9 -9 -9 -9 -9 -9 -8
-8 -8 -8 -8 -8 -8 -8 -7 -7 -7 -7 -7 -7 -8 -8 -8 -8 -8 -8 -8 -8 -9 -9 -9 -9 -9 -9 -9 -9 -9 -9 -9 -9 -9 -9 -9 -9 -9 -9 -9 -9 -9
-8 -8 -8 -8 -8 -8 -8 -8 -8 -7 -7 -7 -8 -8 -8 -8 -8 -8 -8 -8 -9 -9 -9 -9 -9 -9 -9 -9 -9 -9 -9 -9 -9 -9 -9 -9 -9 -9 -9 -9 -9 -9
-7 -8 -8 -8 -8 -8 -8 -8 -8 -8 -8 -8 -8 -8 -8 -8 -8 -8 -8 -9 -9 -9 -9 -9 -9 -9 -9 -9 -9 -9 -9 -8 -9 -9 -9 -9 -9 -9 -9 -9 -9 -9
-7 -7 -8 -8 -8 -8 -8 -8 -8 -8 -8 -8 -8 -8 -8 -8 -8 -8 -9 -9 -9 -9 -9 -9 -9 -9 -9 -9 -9 -9 -9 -8 -9 -9 -9 -9 -9 -9 -10 -10 -9 -9
-7 -7 -7 -8 -8 -8 -8 -8 -8 -8 -8 -8 -8 -8 -8 -8 -8 -8 -9 -9 -9 -9 -9 -9 -9 -9 -9 -9 -9 -9 -9 -9 -9 -9 -9 -10 -10 -10 -10 -10 -10 -9
-7 -7 -7 -8 -8 -8 -8 -8 -8 -8 -8 -8 -8 -8 -8 -8 -8 -8 -9 -9 -9 -9 -9 -9 -9 -9 -9 -9 -9 -9 -9 -9 -9 -9 -9 -9 -10 -10 -10 -10 -10 -9
-7 -7 -7 -7 -7 -8 -8 -8 -8 -8 -8 -8 -8 -8 -8 -8 -8 -9 -9 -9 -9 -9 -9 -9 -9 -9 -9 -9 -9 -9 -9 -9 -9 -9 -9 -9 -10 -10 -9 -9 -9 -9
-7 -7 -8 -7 -7 -7 -8 -8 -8 -8 -8 -8 -8 -8 -8 -8 -8 -9 -9 -9 -9 -9 -9 -9 -9 -9 -9 -9 -9 -9 -9 -9 -9 -9 -9 -9 -9 -9 -8 -8 -8 -9
-7 -7 -7 -7 -7 -7 -8 -8 -8 -8 -8 -8 -8 -8 -8 -8 -8 -8 -8 -9 -9 -9 -9 -9 -9 -9 -9 -9 -9 -9 -9 -9 -9 -9 -9 -8 -8 -8 -8 -8 -8 -9
-8 -8 -7 -7 -7 -8 -8 -8 -8 -8 -8 -8 -8 -8 -8 -8 -8 -8 -8 -8 -8 -9 -9 -9 -9 -9 -9 -9 -9 -9 -9 -9 -9 -9 -8 -8 -8 -8 -8 -8 -9 -9
-8 -8 -8 -8 -8 -7 -8 -8 -8 -8 -8 -8 -8 -8 -8 -8 -8 -8 -8 -8 -8 -8 -8 -9 -9 -9 -9 -9 -9 -9 -9 -9 -9 -9 -8 -8 -8 -8 -8 -9 -9 -9
-8 -8 -8 -8 -8 -8 -8 -8 -8 -8 -8 -8 -8 -8 -8 -8 -8 -8 -8 -8 -8 -8 -8 -8 -9 -9 -9 -9 -9 -9 -9 -9 -9 -9 -9 -8 -8 -9 -9 -9 -9 -9
Height
5911 5912 5913 5913 5914 5914 5914 5915 5915 5916 5917 5917 5917 5917 5917 5917 5917 5917 5917 5917 5917 5917 5917 5917 5917 5917 5917 5916 5916 5915 5914 5913 5911 5910 5909 5907 5906 5904 5903 5901 5899 5897
5909 5910 5911 5911 5912 5912 5913 5913 5913 5914 5915 5915 5915 5915 5915 5915 5915 5915 5915 5915 5916 5916 5916 5915 5915 5915 5915 5915 5915 5914 5912 5911 5910 5909 5908 5906 5905 5903 5901 5900 5898 5896
5907 5908 5909 5909 5910 5910 5910 5910 5911 5912 5913 5913 5913 5913 5914 5914 5914 5914 5914 5914 5915 5915 5914 5914 5914 5914 5914 5914 5913 5912 5911 5910 5909 5908 5906 5905 5903 5902 5900 5898 5896 5895
5905 5906 5906 5907 5907 5908 5908 5909 5909 5909 5910 5911 5911 5911 5912 5912 5912 5912 5913 5913 5913 5913 5913 5913 5913 5913 5913 5912 5911 5910 5910 5909 5908 5907 5905 5904 5902 5900 5898 5896 5894 5893
5903 5903 5904 5904 5904 5905 5906 5907 5907 5907 5908 5908 5908 5909 5910 5910 5910 5910 5911 5911 5912 5912 5912 5912 5912 5912 5912 5911 5910 5909 5908 5907 5906 5905 5904 5902 5900 5898 5896 5894 5893 5891
5900 5901 5901 5902 5902 5903 5904 5905 5905 5904 5905 5906 5906 5907 5908 5908 5909 5909 5909 5909 5910 5910 5910 5911 5911 5911 5910 5909 5908 5907 5907 5906 5904 5903 5902 5901 5899 5897 5895 5893 5891 5890
5898 5898 5899 5899 5900 5900 5902 5902 5902 5903 5903 5904 5904 5904 5905 5906 5907 5907 5907 5907 5908 5909 5909 5909 5909 5909 5908 5907 5906 5906 5905 5903 5902 5901 5900 5899 5897 5896 5894 5892 5890 5888
5895 5895 5896 5897 5897 5898 5899 5900 5900 5901 5901 5902 5902 5903 5903 5904 5905 5905 5905 5905 5906 5907 5908 5908 5908 5908 5906 5906 5905 5904 5903 5901 5900 5899 5898 5897 5895 5894 5892 5890 5888 5887
5891 5892 5893 5894 5895 5896 5897 5897 5898 5898 5899 5900 5900 5900 5901 5902 5902 5903 5903 5903 5904 5905 5906 5907 5907 5906 5905 5904 5903 5902 5901 5899 5898 5897 5896 5895 5893 5892 5890 5888 5887 5885
5889 5890 5891 5892 5893 5894 5895 5895 5895 5896 5897 5898 5898 5899 5899 5900 5900 5900 5901 5901 5902 5903 5904 5905 5904 5904 5903 5903 5902 5900 5899 5897 5896 5895 5894 5893 5891 5890 5888 5886 5885 5883
5886 5887 5888 5890 5891 5892 5892 5892 5893 5894 5895 5896 5896 5897 5897 5897 5898 5898 5899 5899 5900 5901 5902 5902 5902 5902 5901 5901 5900 5898 5897 5895 5894 5894 5893 5891 5889 5888 5887 5885 5883 5882
5884 5885 5886 5888 5889 5889 5890 5890 5891 5892 5893 5894 5895 5895 5895 5895 5896 5896 5897 5897 5898 5899 5900 5900 5900 5900 5899 5898 5897 5896 5895 5893 5892 5892 5890 5889 5888 5887 5885 5884 5882 5880
5882 5883 5884 5885 5886 5887 5888 5888 5889 5890 5891 5892 5892 5893 5893 5894 5894 5894 5895 5895 5896 5897 5897 5897 5897 5897 5896 5895 5894 5893 5892 5891 5890 5889 5888 5887 5886 5885 5884 5882 5881 5879
5881 5882 5883 5883 5884 5885 5886 5887 5888 5889 5889 5889 5890 5891 5892 5892 5892 5892 5892 5893 5893 5894 5894 5894 5894 5894 5894 5893 5891 5890 5889 5889 5888 5887 5886 5885 5884 5882 5881 5880 5879 5877
5879 5880 5881 5882 5882 5883 5884 5885 5886 5887 5887 5887 5888 5889 5890 5890 5890 5890 5890 5891 5891 5892 5892 5892 5892 5891 5891 5890 5889 5887 5887 5887 5886 5885 5883 5882 5881 5880 5879 5878 5876 5875
5878 5879 5879 5880 5881 5882 5883 5884 5884 5885 5885 5886 5886 5887 5887 5887 5888 5888 5889 5889 5889 5889 5889 5889 5889 5889 5888 5887 5886 5885 5884 5885 5884 5883 5881 5880 5879 5877 5876 5874 5873 5872
5877 5877 5877 5878 5879 5880 5880 5881 5882 5882 5883 5884 5884 5885 5885 5885 5885 5886 5887 5887 5886 5886 5886 5886 5886 5886 5886 5885 5884 5883 5882 5882 5882 5880 5879 5877 5876 5874 5873 5871 5870 5869
5875 5876 5876 5876 5877 5878 5878 5879 5879 5880 5881 5882 5882 5883 5883 5883 5883 5884 5884 5884 5884 5884 5884 5884 5884 5884 5883 5883 5882 5880 5879 5879 5879 5877 5876 5874 5872 5871 5869 5868 5866 5865
5873 5873 5874 5875 5875 5875 5876 5876 5876 5877 5878 5879 5880 5880 5880 5880 5881 5881 5881 5881 5882 5882 5882 5882 5881 5881 5881 5880 5879 5878 5876 5875 5875 5874 5873 5871 5869 5867 5865 5864 5862 5861
5870 5871 5872 5873 5873 5873 5873 5873 5874 5875 5875 5876 5877 5877 5877 5878 5878 5879 5879 5879 5880 5880 5879 5879 5879 5879 5878 5877 5876 5875 5872 5872 5872 5871 5869 5867 5865 5863 5861 5859 5857 5856
5867 5868 5869 5870 5870 5870 5870 5870 5871 5872 5872 5873 5873 5874 5875 5875 5876 5876 5877 5877 5877 5877 5877 5877 5876 5876 5875 5874 5873 5871 5869 5868 5868 5867 5865 5863 5860 5858 5855 5852 5850 5850
5864 5865 5866 5866 5867 5866 5867 5867 5868 5869 5869 5870 5870 5871 5871 5872 5873 5874 5874 5875 5874 5874 5874 5874 5873 5873 5872 5871 5870 5868 5866 5864 5864 5863 5861 5858 5856 5852 5849 5846 5845 5844
5860 5861 5862 5862 5862 5863 5864 5864 5865 5866 5866 5866 5867 5867 5867 5868 5870 5871 5872 5871 5871 5871 5871 5871 5870 5869 5868 5867 5866 5864 5862 5861 5860 5859 5856 5853 5852 5850 5847 5845 5843 5840
5855 5856 5857 5857 5858 5859 5861 5861 5861 5862 5862 5862 5863 5863 5864 5865 5866 5867 5867 5867 5867 5867 5868 5867 5866 5865 5864 5864 5862 5860 5859 5857 5856 5856 5852 5849 5848 5847 5845 5844 5841 5837
5849 5850 5851 5852 5853 5855 5856 5857 5857 5857 5858 5858 5859 5859 5860 5861 5861 5862 5862 5863 5863 5864 5864 5863 5863 5861 5860 5860 5858 5857 5856 5854 5853 5852 5849 5845 5845 5843 5841 5839 5836 5833
5844 5845 5846 5846 5848 5850 5851 5852 5852 5852 5852 5853 5854 5855 5855 5855 5856 5857 5858 5858 5859 5859 5859 5858 5857 5857 5856 5856 5854 5853 5852 5850 5849 5849 5846 5843 5843 5842 5839 5836 5833 5830
Wind_Speed
16 16 16 17 17 17 17 17 17 16 15 16 17 16 14 12 10 9 8 6 4 4 5 7 8 9 10 11 13 14 16 17 17 17 17 17 17 18 18 18 18 19
19 19 19 19 19 19 19 19 19 18 17 18 19 17 15 13 11 10 8 6 5 6 6 7 9 10 11 12 13 14 15 15 15 15 15 15 16 17 18 18 18 18
21 21 21 21 21 21 22 22 22 21 20 19 19 19 17 14 12 10 7 6 6 7 7 7 9 10 11 13 13 13 13 13 13 13 14 15 16 17 18 18 18 18
23 23 23 23 23 24 24 24 23 22 21 20 20 20 17 14 12 10 8 7 7 7 7 8 9 10 12 12 12 12 12 12 12 13 14 15 16 17 18 19 19 19
25 25 25 26 26 26 26 24 24 23 21 20 22 21 18 15 13 11 10 9 8 8 7 8 9 10 11 11 10 11 11 11 12 13 14 15 17 18 19 21 22 22
26 26 26 27 27 27 26 24 24 24 22 21 22 21 18 16 13 12 11 11 9 8 8 9 10 10 10 9 11 12 12 13 13 14 15 16 18 20 22 24 26 26
27 27 28 28 28 27 26 25 24 23 23 22 22 21 19 17 15 14 13 12 10 8 9 10 10 10 9 9 12 14 15 16 16 17 17 19 21 23 24 26 28 30
27 28 28 28 28 27 26 25 24 24 24 23 21 21 20 18 16 15 14 12 10 9 10 10 10 9 9 11 13 15 17 18 18 19 20 22 23 24 25 26 27 29
26 27 28 28 28 26 25 24 24 25 24 22 22 22 21 19 17 16 15 13 11 11 10 10 10 9 10 12 14 15 17 18 19 21 23 24 25 25 26 27 27 28
24 25 26 27 26 24 24 24 24 25 24 22 23 23 22 20 19 17 15 14 13 12 11 10 10 10 11 13 14 16 17 18 20 22 25 26 26 26 27 29 29 28
22 23 24 23 22 22 23 24 25 25 24 23 23 23 22 21 20 17 16 15 14 13 11 11 12 12 12 13 15 17 18 20 22 24 25 26 26 27 28 29 30 29
20 21 21 20 20 21 23 25 25 25 24 23 24 24 23 22 20 19 18 17 16 14 12 12 13 13 13 14 16 18 20 22 24 26 26 26 26 27 28 28 28 28
19 19 19 18 19 21 24 26 26 25 25 24 25 25 24 23 21 20 19 19 17 14 13 14 14 14 14 16 18 19 21 24 26 27 28 27 27 28 28 28 28 27
18 19 18 18 20 21 23 25 26 25 25 26 27 26 24 23 22 22 21 19 17 14 14 15 15 14 15 17 19 21 23 25 27 28 29 29 29 29 30 29 29 28
18 19 19 20 21 21 22 23 24 25 26 27 28 26 25 24 24 23 22 19 17 15 15 15 14 15 15 17 20 23 25 26 27 28 30 30 29 29 30 31 30 30
19 19 20 21 21 21 21 22 23 25 27 28 27 26 26 26 26 24 22 19 18 16 15 14 14 15 16 18 21 24 26 27 27 28 29 30 29 29 30 32 32 31
22 22 22 22 22 22 22 22 24 25 27 28 28 27 27 27 27 24 22 20 19 17 15 14 14 16 17 18 21 24 27 27 27 27 28 30 30 30 31 31 32 32
25 25 25 24 24 24 23 22 24 25 27 28 28 28 28 29 28 25 23 22 20 18 16 15 15 17 17 19 22 25 27 27 26 27 29 31 32 33 32 31 32 32
28 27 27 27 27 27 26 25 25 25 25 27 29 29 30 30 29 26 25 24 21 19 17 16 17 18 19 20 22 25 27 27 27 30 32 34 35 36 34 33 32 32
30 29 29 29 29 29 29 28 27 26 25 25 28 31 31 31 30 28 27 25 23 21 20 19 19 20 20 21 23 26 28 28 30 32 35 36 38 39 38 36 33 31
32 31 31 31 32 32 32 31 29 28 27 26 28 31 32 32 31 30 28 26 24 23 22 21 21 21 21 23 24 27 30 30 31 33 35 37 39 41 42 39 34 31
32 32 33 34 34 34 33 32 30 29 29 28 28 30 33 34 33 31 30 28 26 26 24 23 23 22 23 24 25 28 31 32 33 34 34 35 37 39 39 35 30 30
32 33 35 37 37 36 35 33 32 31 30 30 29 31 33 34 33 32 31 29 29 28 26 24 23 23 24 25 27 30 32 32 33 33 33 34 36 35 33 30 29 31
35 35 37 39 39 38 37 36 35 33 31 31 31 31 33 33 33 34 33 33 33 30 28 26 24 25 27 27 28 31 32 33 34 33 34 36 36 34 32 30 30 33
36 36 38 40 40 39 39 38 37 36 34 33 32 33 33 34 35 36 36 36 35 32 29 27 26 27 29 29 30 32 32 34 35 33 34 37 36 34 35 34 35 37
37 37 38 41 41 39 40 40 40 39 38 36 34 34 35 36 37 38 38 37 36 33 31 29 28 29 30 30 32 33 33 34 35 33 34 36 35 34 35 38 40 40
Wind_Direction
240 240 241 242 245 247 249 251 253 254 256 260 265 269 268 261 254 252 260 270 277 289 301 303 307 317 326 332 336 337 338 340 342 344 345 344 345 346 347 347 346 345
240 241 243 246 248 250 250 250 253 255 256 259 263 266 266 258 248 247 252 256 267 284 291 299 308 317 325 330 334 336 339 343 347 350 349 348 347 347 346 346 345 344
241 242 244 246 248 249 250 251 254 257 257 258 261 262 260 253 245 242 240 240 254 272 282 296 308 315 321 328 333 338 345 351 353 353 352 350 348 347 345 343 342 341
240 242 243 244 246 249 252 255 258 260 257 254 255 257 254 247 240 237 232 234 246 259 274 292 301 308 317 326 333 340 348 352 351 349 349 348 345 343 342 342 341 339
240 241 242 244 246 249 253 257 260 259 254 248 250 253 250 240 231 229 229 236 245 255 271 285 293 304 316 325 329 336 344 345 343 345 347 345 342 342 343 343 343 342
242 244 245 247 248 251 254 256 257 254 246 244 247 249 244 233 221 219 226 236 244 254 269 280 290 304 316 320 321 326 331 333 335 340 344 345 344 344 344 343 342 343
244 246 247 248 249 251 253 253 250 248 244 242 244 243 237 226 216 216 224 233 240 249 264 277 290 304 310 311 315 320 323 326 331 336 341 345 348 349 346 341 339 339
245 246 247 249 250 250 250 248 245 244 243 241 239 236 230 221 215 217 223 228 234 243 257 272 286 295 301 307 314 318 321 323 328 334 341 348 352 351 347 341 336 334
246 247 248 249 250 251 248 245 243 242 241 238 233 228 224 220 219 220 222 226 232 241 254 267 278 286 296 305 313 317 320 324 329 336 345 351 352 349 345 341 337 333
248 248 250 250 250 249 245 242 241 239 238 233 228 223 220 220 223 223 222 226 232 241 252 263 271 281 293 303 312 317 321 327 334 340 347 351 350 348 345 343 342 337
249 250 250 251 249 245 240 237 236 236 235 231 226 221 219 222 225 223 222 227 233 241 249 257 267 278 290 301 312 319 324 330 336 342 347 349 349 349 348 346 345 341
249 250 251 250 247 240 235 233 234 235 235 231 225 221 221 225 225 221 222 227 233 239 245 254 266 277 291 303 313 320 326 331 336 341 345 347 348 349 349 348 346 343
245 246 247 247 244 239 235 234 234 235 235 230 224 222 224 227 225 222 223 229 233 236 242 254 266 280 294 307 316 321 327 331 336 339 342 345 346 346 348 348 346 342
245 242 242 243 243 241 239 238 238 238 236 230 226 226 229 228 225 223 226 231 233 235 243 256 270 285 300 311 317 321 326 331 335 336 338 341 343 342 344 346 345 342
250 246 244 244 244 244 244 244 243 241 236 231 230 232 233 229 225 226 230 233 233 236 247 261 275 290 304 313 315 318 324 330 333 333 334 337 338 337 338 339 341 341
255 254 251 249 248 247 245 244 243 241 237 234 234 236 235 230 228 230 233 235 235 240 251 264 279 293 304 309 312 316 322 327 329 329 331 334 334 333 332 333 335 337
256 255 254 254 253 252 250 246 243 241 239 238 239 240 236 231 230 233 234 235 238 245 253 265 280 291 299 304 309 313 317 322 325 326 329 331 332 331 330 329 330 332
260 257 256 256 256 256 256 253 249 245 243 242 243 242 237 232 233 234 233 235 241 248 255 265 276 284 292 298 304 309 312 317 323 325 327 328 327 328 327 326 327 329
262 260 259 259 259 258 256 255 256 254 250 247 244 242 238 235 235 235 234 237 244 250 255 262 270 278 287 295 300 304 308 315 322 325 324 323 321 321 320 320 322 325
262 262 261 261 262 261 257 257 258 259 258 253 245 242 239 237 237 237 236 240 246 249 252 259 268 276 285 293 298 301 304 311 319 321 321 321 319 316 312 311 314 320
259 261 262 263 264 263 261 260 261 261 260 257 251 245 241 239 239 238 237 241 246 249 253 260 269 277 285 291 296 298 302 308 315 317 319 320 318 313 307 303 307 315
256 258 260 262 264 264 263 264 266 266 263 259 256 250 244 241 240 238 238 242 246 250 257 264 271 278 284 289 295 298 300 305 311 314 317 318 318 317 310 303 305 315
256 256 257 260 262 263 264 266 269 270 265 260 257 255 250 246 243 240 240 244 248 253 259 265 271 277 283 287 292 295 298 303 308 311 313 314 316 319 316 310 311 316
260 256 255 256 258 261 263 264 266 268 267 262 257 255 254 250 244 240 242 246 250 255 260 264 270 276 280 285 288 291 296 301 305 308 310 311 313 316 316 315 316 317
261 256 252 252 255 257 259 259 260 263 265 262 257 254 254 250 243 240 242 248 252 255 258 263 269 273 277 281 285 289 295 299 302 304 305 307 310 313 317 320 319 317
257 254 251 251 251 251 253 254 255 257 261 262 259 255 253 249 244 242 244 248 251 253 256 262 267 270 275 280 284 288 293 297 300 301 301 305 309 311 314 317 317 315